When you browse on this site, cookies collect data to enhance your experience and personalize the content and advertising you see.
Visit our Privacy Policy to learn more. By continuing to use the site, you agree to this use of cookies and data.

Stündliche Wetter Kipungo

Heute, 10 Juli, Freitag

Zeit Temperatur Niederschläge Wind Luftdruck Luftfeuchtigkeit
00:00 +12°C° 0 mm 1 m/S 652 mmHg 33%
01:00 +11°C° 0 mm 1 m/S 652 mmHg 36%
02:00 +11°C° 0 mm 1 m/S 652 mmHg 37%
03:00 +10°C° 0 mm 1 m/S 652 mmHg 37%
04:00 +10°C° 0 mm 1 m/S 651 mmHg 37%
05:00 +10°C° 0 mm 1 m/S 652 mmHg 37%
06:00 +10°C° 0 mm 1 m/S 652 mmHg 36%
07:00 +10°C° 0 mm 1 m/S 652 mmHg 36%
08:00 +16°C° 0 mm 1 m/S 654 mmHg 29%
09:00 +22°C° 0 mm 1 m/S 655 mmHg 23%
10:00 +27°C° 0 mm 1 m/S 657 mmHg 16%
11:00 +29°C° 0 mm 2 m/S 656 mmHg 16%
12:00 +31°C° 0 mm 2 m/S 656 mmHg 15%
13:00 +34°C° 0 mm 3 m/S 656 mmHg 14%
14:00 +33°C° 0 mm 3 m/S 655 mmHg 14%
15:00 +33°C° 0 mm 3 m/S 655 mmHg 15%
16:00 +32°C° 0 mm 4 m/S 654 mmHg 15%
17:00 +28°C° 0 mm 3 m/S 654 mmHg 21%
18:00 +24°C° 0 mm 3 m/S 653 mmHg 27%
19:00 +20°C° 0 mm 2 m/S 653 mmHg 32%
20:00 +18°C° 0 mm 2 m/S 653 mmHg 38%
21:00 +17°C° 0 mm 2 m/S 653 mmHg 43%
22:00 +15°C° 0 mm 1 m/S 653 mmHg 48%
23:00 +14°C° 0 mm 1 m/S 653 mmHg 51%

Morgen, 11 Juli, Samstag

Zeit Temperatur Niederschläge Wind Luftdruck Luftfeuchtigkeit
00:00 +13°C° 0 mm 1 m/S 653 mmHg 54%
01:00 +12°C° 0 mm 1 m/S 652 mmHg 57%
02:00 +12°C° 0 mm 1 m/S 652 mmHg 60%
03:00 +10°C° 0 mm 0 m/S 652 mmHg 63%
04:00 +9°C° 0 mm 0 m/S 651 mmHg 66%
05:00 +9°C° 0 mm 0 m/S 652 mmHg 65%
06:00 +10°C° 0 mm 0 m/S 652 mmHg 64%
07:00 +11°C° 0 mm 1 m/S 653 mmHg 63%
08:00 +15°C° 0 mm 1 m/S 654 mmHg 50%
09:00 +21°C° 0 mm 1 m/S 655 mmHg 38%
10:00 +26°C° 0 mm 2 m/S 657 mmHg 25%
11:00 +28°C° 0 mm 2 m/S 656 mmHg 22%
12:00 +30°C° 0 mm 2 m/S 656 mmHg 18%
13:00 +34°C° 0 mm 2 m/S 656 mmHg 15%
14:00 +32°C° 0 mm 1 m/S 655 mmHg 15%
15:00 +32°C° 0 mm 1 m/S 655 mmHg 14%
16:00 +32°C° 0 mm 1 m/S 654 mmHg 14%
17:00 +29°C° 0 mm 2 m/S 654 mmHg 17%
18:00 +25°C° 0 mm 2 m/S 654 mmHg 21%
19:00 +21°C° 0 mm 2 m/S 653 mmHg 25%
20:00 +20°C° 0 mm 2 m/S 654 mmHg 27%
21:00 +18°C° 0 mm 2 m/S 654 mmHg 28%
22:00 +17°C° 0 mm 2 m/S 654 mmHg 30%
23:00 +16°C° 0 mm 1 m/S 653 mmHg 32%

übermorgen, 12 Juli, Sonntag

Zeit Temperatur Niederschläge Wind Luftdruck Luftfeuchtigkeit
00:00 +14°C° 0 mm 1 m/S 653 mmHg 34%
01:00 +13°C° 0 mm 1 m/S 653 mmHg 36%
02:00 +13°C° 0 mm 1 m/S 652 mmHg 38%
03:00 +12°C° 0 mm 1 m/S 652 mmHg 40%
04:00 +10°C° 0 mm 0 m/S 652 mmHg 42%
05:00 +11°C° 0 mm 1 m/S 653 mmHg 41%
06:00 +11°C° 0 mm 1 m/S 653 mmHg 41%
07:00 +11°C° 0 mm 1 m/S 654 mmHg 41%
08:00 +16°C° 0 mm 1 m/S 655 mmHg 33%
09:00 +20°C° 0 mm 2 m/S 655 mmHg 24%
10:00 +26°C° 0 mm 3 m/S 656 mmHg 16%
11:00 +28°C° 0 mm 3 m/S 656 mmHg 14%
12:00 +30°C° 0 mm 3 m/S 656 mmHg 13%
13:00 +33°C° 0 mm 3 m/S 656 mmHg 11%
14:00 +34°C° 0 mm 3 m/S 655 mmHg 11%
15:00 +34°C° 0 mm 2 m/S 655 mmHg 11%
16:00 +34°C° 0 mm 2 m/S 654 mmHg 10%
17:00 +29°C° 0 mm 2 m/S 654 mmHg 14%
18:00 +26°C° 0 mm 2 m/S 654 mmHg 17%
19:00 +21°C° 0 mm 2 m/S 654 mmHg 20%
20:00 +20°C° 0 mm 2 m/S 654 mmHg 22%
21:00 +19°C° 0 mm 2 m/S 654 mmHg 23%
22:00 +17°C° 0 mm 2 m/S 654 mmHg 24%
23:00 +16°C° 0 mm 2 m/S 654 mmHg 27%

13 Juli, Montag

Zeit Temperatur Niederschläge Wind Luftdruck Luftfeuchtigkeit
00:00 +14°C° 0 mm 1 m/S 653 mmHg 30%
01:00 +13°C° 0 mm 1 m/S 653 mmHg 33%
02:00 +12°C° 0 mm 1 m/S 653 mmHg 35%
03:00 +12°C° 0 mm 1 m/S 652 mmHg 37%
04:00 +11°C° 0 mm 1 m/S 652 mmHg 38%
05:00 +11°C° 0 mm 1 m/S 652 mmHg 39%
06:00 +11°C° 0 mm 1 m/S 653 mmHg 39%
07:00 +11°C° 0 mm 1 m/S 653 mmHg 40%
08:00 +16°C° 0 mm 1 m/S 654 mmHg 33%
09:00 +20°C° 0 mm 2 m/S 655 mmHg 25%
10:00 +26°C° 0 mm 3 m/S 656 mmHg 18%
11:00 +28°C° 0 mm 3 m/S 656 mmHg 15%
12:00 +30°C° 0 mm 3 m/S 656 mmHg 13%
13:00 +33°C° 0 mm 3 m/S 656 mmHg 11%
14:00 +33°C° 0 mm 3 m/S 655 mmHg 11%
15:00 +33°C° 0 mm 3 m/S 654 mmHg 10%
16:00 +33°C° 0 mm 3 m/S 654 mmHg 10%
17:00 +28°C° 0 mm 2 m/S 654 mmHg 12%
18:00 +25°C° 0 mm 2 m/S 653 mmHg 15%
19:00 +21°C° 0 mm 2 m/S 653 mmHg 18%
20:00 +19°C° 0 mm 2 m/S 653 mmHg 19%
21:00 +18°C° 0 mm 2 m/S 653 mmHg 20%
22:00 +17°C° 0 mm 2 m/S 654 mmHg 21%
23:00 +15°C° 0 mm 2 m/S 653 mmHg 24%

14 Juli, Dienstag

Zeit Temperatur Niederschläge Wind Luftdruck Luftfeuchtigkeit
00:00 +14°C° 0 mm 2 m/S 653 mmHg 26%
01:00 +12°C° 0 mm 1 m/S 652 mmHg 28%
02:00 +11°C° 0 mm 1 m/S 652 mmHg 30%
03:00 +10°C° 0 mm 1 m/S 652 mmHg 32%
04:00 +8°C° 0 mm 0 m/S 651 mmHg 33%
05:00 +8°C° 0 mm 0 m/S 652 mmHg 32%
06:00 +8°C° 0 mm 0 m/S 652 mmHg 32%
07:00 +8°C° 0 mm 0 m/S 653 mmHg 31%
08:00 +14°C° 0 mm 1 m/S 654 mmHg 24%
09:00 +19°C° 0 mm 2 m/S 655 mmHg 18%
10:00 +25°C° 0 mm 3 m/S 656 mmHg 11%
11:00 +27°C° 0 mm 3 m/S 656 mmHg 10%
12:00 +29°C° 0 mm 3 m/S 655 mmHg 9%
13:00 +33°C° 0 mm 3 m/S 655 mmHg 7%
14:00 +33°C° 0 mm 3 m/S 655 mmHg 7%
15:00 +33°C° 0 mm 3 m/S 654 mmHg 7%
16:00 +33°C° 0 mm 3 m/S 654 mmHg 7%
17:00 +28°C° 0 mm 2 m/S 653 mmHg 9%
18:00 +24°C° 0 mm 2 m/S 653 mmHg 11%
19:00 +20°C° 0 mm 1 m/S 653 mmHg 13%
20:00 +18°C° 0 mm 2 m/S 653 mmHg 14%
21:00 +17°C° 0 mm 2 m/S 653 mmHg 14%
22:00 +15°C° 0 mm 2 m/S 653 mmHg 15%
23:00 +14°C° 0 mm 2 m/S 653 mmHg 16%

15 Juli, Mittwoch

Zeit Temperatur Niederschläge Wind Luftdruck Luftfeuchtigkeit
00:00 +12°C° 0 mm 1 m/S 652 mmHg 18%
01:00 +10°C° 0 mm 1 m/S 652 mmHg 19%
02:00 +10°C° 0 mm 1 m/S 652 mmHg 19%
03:00 +9°C° 0 mm 1 m/S 652 mmHg 20%
04:00 +8°C° 0 mm 1 m/S 652 mmHg 21%
05:00 +9°C° 0 mm 1 m/S 652 mmHg 21%
06:00 +9°C° 0 mm 1 m/S 653 mmHg 21%
07:00 +9°C° 0 mm 1 m/S 654 mmHg 21%
08:00 +14°C° 0 mm 2 m/S 655 mmHg 18%
09:00 +18°C° 0 mm 3 m/S 656 mmHg 15%
10:00 +23°C° 0 mm 4 m/S 657 mmHg 11%
11:00 +26°C° 0 mm 4 m/S 657 mmHg 10%
12:00 +29°C° 0 mm 5 m/S 657 mmHg 9%
13:00 +32°C° 0 mm 5 m/S 656 mmHg 8%
14:00 +32°C° 0 mm 5 m/S 656 mmHg 8%
15:00 +30°C° 0 mm 4 m/S 655 mmHg 7%
16:00 +30°C° 0 mm 4 m/S 655 mmHg 7%
17:00 +27°C° 0 mm 4 m/S 655 mmHg 10%
18:00 +22°C° 0 mm 3 m/S 654 mmHg 12%
19:00 +19°C° 0 mm 2 m/S 654 mmHg 15%
20:00 +17°C° 0 mm 2 m/S 654 mmHg 17%
21:00 +16°C° 0 mm 2 m/S 654 mmHg 19%
22:00 +14°C° 0 mm 2 m/S 654 mmHg 21%
23:00 +13°C° 0 mm 1 m/S 654 mmHg 23%
Mehr zeigen